Wind_Speed
75 71 70 66 64 59 58 54 47 43 41 42 38 34 36 35 32 29 28 23 20 17 18 18 22 23 23 22 21 24 25 23 34 36 32 32 30 33 32 27 27 19 18 17 19
78 71 72 71 68 65 60 57 52 49 44 44 42 35 36 36 33 31 27 20 18 20 21 21 21 26 25 24 23 24 24 26 36 34 37 36 33 33 32 29 25 20 18 20 22
82 80 75 78 71 68 64 61 56 51 49 45 42 42 38 39 35 28 28 24 21 21 22 24 27 28 30 23 24 24 27 30 39 37 37 39 36 35 34 34 24 21 22 25 21
87 86 80 79 75 72 68 62 58 55 51 52 45 46 40 40 38 34 32 28 25 24 24 26 25 26 25 28 25 29 32 34 38 42 38 37 38 39 41 32 26 20 25 21 20
82 86 87 79 75 75 74 68 63 62 57 54 54 48 46 43 41 39 33 32 30 28 28 30 29 27 28 31 33 31 32 37 37 42 45 42 38 39 42 37 25 21 21 21 23
80 82 85 87 82 83 80 78 71 63 64 57 53 50 48 45 44 42 38 37 34 35 35 36 31 34 33 33 28 36 37 36 39 44 48 43 38 39 39 37 27 24 24 25 27
86 84 84 83 85 89 81 74 76 72 69 65 62 59 52 48 48 47 46 45 43 41 37 37 35 32 33 31 37 39 37 37 38 47 54 41 39 40 36 34 29 26 28 31 26
85 85 88 86 82 91 91 84 79 76 70 71 66 65 60 54 50 51 50 48 46 45 46 45 42 37 36 39 43 44 46 45 43 52 47 45 37 40 36 33 32 29 33 32 26
91 88 90 86 90 86 88 91 86 84 81 75 72 70 65 58 54 52 52 50 51 48 50 50 47 46 40 39 41 45 45 43 43 55 50 42 36 39 36 34 32 33 32 29 27
101 96 91 91 93 88 87 88 92 89 85 83 81 75 72 69 64 61 57 52 52 52 52 51 52 50 41 44 44 50 41 36 53 53 47 40 37 38 36 35 34 34 35 33 29
105 102 98 96 96 96 92 89 91 92 90 90 83 79 77 69 70 64 59 53 51 56 58 57 54 46 46 45 43 47 45 39 56 57 56 53 43 39 37 36 36 38 37 35 29
109 111 106 102 100 97 97 96 95 94 89 89 81 76 75 72 68 69 65 58 57 61 62 59 59 53 54 51 49 53 49 46 62 60 61 47 47 39 39 41 38 39 40 34 35
99 105 105 101 102 98 94 77 91 94 88 84 84 82 80 75 73 72 73 70 66 64 61 62 61 58 59 50 48 53 50 57 64 63 53 59 42 38 40 43 42 41 41 37 35
88 96 102 98 99 99 98 97 88 97 90 84 83 83 78 76 74 72 69 69 69 63 64 65 65 62 55 47 52 50 58 55 60 55 57 44 43 41 41 42 44 42 41 40 36
72 88 96 99 98 102 102 97 87 82 86 88 83 80 79 79 81 78 77 71 69 66 65 67 65 63 55 50 52 59 59 61 62 57 47 45 43 43 44 44 45 45 43 43 38
67 76 88 93 99 102 100 100 93 90 85 87 83 82 81 82 80 77 73 71 71 69 66 64 65 61 53 53 63 59 64 66 66 62 47 44 45 45 44 44 46 45 44 44 38
60 68 81 90 99 100 102 101 96 81 79 82 89 87 86 86 81 79 76 71 69 69 68 66 64 58 60 66 70 64 67 68 64 57 48 43 45 47 46 46 47 47 47 44 39
66 64 72 87 102 102 101 98 96 90 83 81 80 76 76 79 77 79 78 74 73 73 73 72 62 65 68 72 71 66 69 67 58 54 45 44 47 48 46 47 48 47 48 44 41
64 67 70 81 103 107 105 104 99 99 94 83 80 78 76 75 75 76 76 73 73 71 70 72 72 74 72 67 63 66 60 58 53 48 45 47 48 50 48 49 49 49 49 45 43
54 65 70 75 85 108 105 100 91 104 102 98 80 81 83 79 77 73 72 71 70 73 74 75 70 69 67 65 58 61 65 60 52 48 47 49 51 51 51 51 49 50 49 46 45
61 59 67 77 78 90 97 96 96 87 87 99 90 86 84 82 81 77 77 78 76 77 75 80 75 75 73 62 62 62 72 58 55 51 48 51 53 56 52 53 52 52 50 48 48
66 62 60 72 78 75 74 85 91 90 91 93 94 87 83 84 84 80 81 77 74 72 71 65 63 64 69 62 65 64 64 63 55 54 54 52 55 58 56 56 55 54 52 51 53
65 63 60 70 72 72 73 76 88 91 91 88 89 90 91 89 88 84 77 75 77 74 65 68 61 62 61 64 63 60 57 59 60 58 61 58 59 62 58 58 57 57 55 54 55
65 65 61 62 69 76 78 79 80 83 83 86 89 87 87 86 80 76 76 74 76 76 77 69 64 65 65 64 64 64 62 65 65 64 64 67 63 66 62 60 60 59 60 57 58
65 63 60 58 59 70 79 83 82 78 76 74 76 80 82 81 80 78 77 75 75 74 72 71 69 71 74 72 70 71 71 71 72 72 67 71 65 73 66 65 63 63 62 60 60
65 66 65 64 62 70 78 81 81 81 80 78 78 79 78 77 78 78 78 75 75 76 78 75 75 78 77 77 75 71 73 78 75 78 74 72 70 72 71 70 67 67 66 63 62
66 69 70 68 69 67 70 77 82 83 82 84 86 84 82 83 83 80 78 79 81 81 80 80 81 84 82 84 82 75 80 80 79 79 81 78 75 75 75 73 71 71 72 67 66
Wind_Direction
226 232 231 229 228 232 226 225 226 228 237 233 232 237 243 237 243 245 252 252 268 273 284 299 313 322 324 326 333 342 353 342 351 354 348 334 332 335 336 333 334 315 302 301 292
228 226 227 226 230 233 238 228 228 235 232 236 235 234 242 236 240 244 240 248 263 274 285 301 317 320 324 323 325 327 346 342 350 347 341 340 330 329 328 331 328 317 311 299 293
231 223 226 227 234 238 239 235 230 234 231 231 237 235 240 235 237 239 240 243 256 267 281 292 303 312 314 315 318 321 319 336 349 348 342 340 326 326 326 326 326 315 315 308 297
232 231 225 228 233 238 238 232 234 233 232 232 239 237 236 238 233 244 235 249 252 266 275 291 299 316 311 310 315 314 317 325 333 347 343 332 323 322 322 319 327 317 311 303 295
228 232 229 228 227 233 233 232 239 236 235 236 238 235 233 239 238 240 239 249 251 264 276 286 296 308 316 312 308 313 318 324 333 345 341 331 320 317 318 319 326 311 317 292 290
226 230 231 228 225 225 231 236 237 235 238 237 237 233 229 235 238 240 248 254 258 266 277 277 290 299 308 306 310 323 317 314 315 334 338 335 319 317 317 322 318 313 309 304 297
226 228 232 231 227 227 232 229 233 234 237 238 237 237 234 231 237 244 251 253 260 264 273 275 286 293 303 305 308 316 320 315 314 325 333 329 320 316 316 318 317 311 310 304 297
225 227 230 231 229 227 230 230 229 232 234 236 237 237 242 241 236 242 248 256 259 265 270 273 281 286 294 297 303 309 311 314 312 324 334 327 316 316 316 315 316 308 302 301 296
230 228 230 229 231 230 231 234 234 234 233 237 240 238 242 243 242 242 249 255 256 265 268 272 278 286 289 296 303 306 307 311 312 323 327 323 315 314 314 314 309 308 305 292 297
230 228 230 230 232 232 232 234 235 236 234 233 236 239 243 242 250 249 244 253 258 261 267 275 276 282 286 294 297 306 302 306 313 325 329 322 320 316 314 311 307 306 304 297 297
227 227 229 228 231 232 232 234 236 235 236 235 234 235 238 244 248 244 245 249 256 264 268 273 274 276 287 292 302 305 301 293 307 316 319 319 319 314 314 309 307 305 304 301 292
226 227 226 227 227 229 232 232 234 235 235 236 233 232 234 238 242 244 246 249 254 262 263 270 273 275 286 282 291 302 298 292 306 311 314 315 320 314 308 306 304 302 304 296 287
223 223 223 223 223 225 227 222 232 231 234 233 233 232 233 239 242 245 247 251 258 260 260 266 268 271 281 278 288 295 292 297 306 307 311 313 310 308 305 304 304 301 303 296 291
222 220 220 217 219 218 217 220 227 233 231 229 234 235 235 237 239 244 247 251 259 256 260 264 267 272 276 274 285 284 297 300 308 308 309 310 309 305 304 302 302 301 302 297 294
220 218 217 216 217 218 218 221 219 225 230 230 231 232 233 234 238 244 248 252 251 258 259 263 267 271 270 268 274 295 300 300 302 305 304 308 302 304 303 304 301 302 300 302 294
219 217 215 213 214 217 218 218 218 225 225 229 228 227 229 233 242 245 246 244 251 255 254 257 268 269 261 265 278 290 298 299 299 302 301 301 303 300 303 304 301 299 299 301 293
216 217 214 210 207 214 216 217 217 220 223 227 228 230 235 239 242 242 245 248 251 255 251 260 267 257 257 271 287 292 296 297 296 298 298 295 296 298 300 304 303 300 299 299 293
211 215 214 209 207 211 214 215 217 216 220 223 228 234 241 242 242 243 242 249 255 254 256 262 262 258 266 279 286 289 291 294 292 295 293 293 292 296 299 305 307 299 298 299 292
217 208 214 210 209 213 214 216 215 220 224 225 230 234 230 238 240 242 248 255 255 255 259 258 257 261 269 279 283 287 285 289 290 289 288 289 290 292 299 304 304 300 298 296 291
213 211 210 212 209 210 211 216 221 226 227 229 228 231 234 236 237 240 244 248 249 251 253 258 263 268 274 276 276 278 284 286 286 287 282 285 287 289 296 301 302 301 297 293 290
211 211 213 209 208 210 214 216 220 220 226 230 230 229 234 239 240 242 246 248 251 252 255 258 264 269 272 272 276 278 282 281 284 283 280 280 284 286 293 295 298 298 296 291 289
215 210 215 213 209 205 209 217 219 222 226 228 229 230 230 234 238 242 243 247 250 253 257 260 263 264 269 268 274 274 277 280 279 280 278 281 282 287 292 292 293 295 294 290 287
214 209 212 212 210 204 208 216 221 221 223 223 223 226 233 235 240 245 248 251 253 255 256 260 262 263 262 266 269 270 272 274 277 278 276 285 278 284 284 288 290 291 289 287 286
215 210 213 212 210 211 208 215 218 222 226 230 231 236 238 241 243 247 248 250 254 256 258 260 260 261 263 266 269 270 272 275 275 275 282 276 280 279 282 285 285 286 287 287 286
211 211 213 210 211 215 214 216 218 219 222 224 230 234 237 240 242 244 247 248 253 256 257 258 260 263 265 267 268 272 274 273 274 273 278 273 277 278 282 282 283 283 284 285 286
211 208 210 214 213 214 216 217 220 223 222 222 227 231 235 238 241 244 247 250 253 254 256 258 260 262 265 266 267 269 271 271 274 272 273 274 273 275 277 279 281 283 284 286 285
212 209 213 213 216 217 217 220 222 224 225 226 228 230 232 235 239 242 244 247 250 253 255 257 260 263 265 266 267 268 267 270 270 270 271 272 274 273 277 279 280 282 284 285 285
Height
10835 10841 10850 10856 10861 10866 10872 10877 10882 10887 10891 10895 10900 10902 10905 10907 10909 10912 10914 10915 10917 10917 10916 10916 10915 10914 10912 10910 10907 10904 10902 10898 10894 10891 10887 10883 10882 10880 10877 10875 10871 10869 10867 10864 10863
10822 10830 10838 10845 10850 10856 10863 10870 10874 10880 10883 10889 10893 10896 10899 10901 10903 10906 10908 10910 10911 10912 10911 10911 10911 10910 10908 10906 10905 10902 10899 10896 10892 10887 10881 10879 10877 10875 10872 10870 10868 10866 10863 10860 10857
10806 10816 10825 10833 10839 10847 10854 10860 10866 10871 10876 10881 10885 10889 10892 10895 10897 10899 10902 10904 10906 10906 10907 10906 10906 10904 10903 10902 10901 10898 10896 10893 10890 10886 10880 10874 10871 10869 10866 10864 10862 10860 10858 10855 10852
10792 10801 10812 10821 10829 10837 10843 10850 10856 10862 10867 10873 10877 10881 10885 10888 10890 10892 10895 10898 10900 10900 10902 10901 10901 10900 10898 10897 10896 10894 10891 10888 10885 10881 10877 10872 10867 10864 10860 10858 10857 10855 10851 10848 10846
10779 10786 10797 10808 10818 10825 10832 10838 10845 10852 10857 10863 10869 10873 10877 10880 10883 10885 10889 10891 10893 10895 10896 10896 10896 10896 10894 10892 10891 10889 10886 10883 10881 10875 10871 10868 10865 10860 10855 10852 10851 10849 10846 10842 10839
10763 10771 10781 10793 10803 10811 10818 10826 10834 10841 10846 10853 10860 10865 10867 10871 10876 10878 10881 10884 10886 10888 10889 10890 10891 10891 10890 10887 10885 10884 10883 10878 10875 10870 10867 10862 10857 10853 10849 10846 10843 10840 10839 10836 10832
10747 10757 10764 10776 10788 10797 10805 10812 10820 10828 10835 10842 10849 10855 10858 10863 10867 10871 10873 10876 10879 10881 10882 10883 10884 10885 10884 10882 10880 10878 10877 10873 10869 10865 10863 10858 10851 10846 10843 10840 10836 10833 10831 10828 10824
10730 10741 10748 10761 10771 10781 10790 10798 10807 10816 10823 10830 10838 10844 10849 10854 10858 10862 10865 10868 10871 10873 10874 10876 10877 10877 10877 10876 10874 10872 10871 10867 10864 10859 10856 10853 10846 10840 10838 10833 10829 10826 10823 10820 10817
10711 10723 10731 10745 10753 10764 10775 10784 10793 10802 10810 10819 10825 10832 10839 10844 10848 10853 10856 10860 10863 10865 10867 10868 10869 10870 10870 10869 10867 10866 10864 10861 10857 10853 10849 10846 10842 10836 10832 10828 10822 10818 10815 10812 10810
10689 10704 10717 10729 10736 10750 10759 10768 10775 10784 10793 10801 10812 10820 10826 10832 10839 10843 10847 10850 10853 10856 10858 10860 10861 10863 10862 10860 10859 10858 10856 10854 10851 10847 10842 10839 10835 10830 10827 10821 10816 10811 10807 10804 10802
10669 10685 10699 10712 10719 10732 10743 10752 10759 10769 10776 10785 10797 10806 10816 10822 10829 10833 10837 10840 10843 10846 10849 10851 10852 10855 10853 10852 10851 10850 10849 10845 10843 10840 10836 10832 10828 10823 10819 10814 10809 10804 10800 10796 10793
10646 10663 10679 10691 10705 10713 10724 10734 10741 10751 10761 10772 10782 10793 10802 10810 10817 10822 10827 10830 10834 10837 10839 10841 10843 10844 10844 10843 10843 10841 10840 10837 10835 10831 10829 10823 10819 10815 10810 10806 10801 10796 10793 10789 10785
10622 10639 10658 10669 10686 10695 10707 10718 10721 10734 10747 10757 10769 10780 10789 10800 10805 10811 10815 10818 10822 10826 10829 10831 10834 10834 10834 10835 10834 10832 10830 10828 10824 10821 10818 10815 10810 10806 10802 10798 10793 10788 10784 10780 10776
10601 10617 10633 10657 10668 10680 10688 10698 10705 10718 10734 10745 10754 10766 10778 10784 10794 10797 10800 10806 10811 10815 10819 10821 10822 10823 10825 10825 10824 10822 10821 10819 10816 10810 10809 10804 10801 10797 10793 10789 10785 10780 10776 10771 10768
10585 10600 10616 10635 10646 10657 10673 10683 10694 10704 10718 10731 10742 10750 10761 10773 10773 10784 10788 10795 10798 10804 10807 10808 10810 10812 10814 10814 10813 10812 10810 10809 10806 10802 10798 10794 10790 10788 10785 10782 10777 10771 10767 10763 10759
10571 10584 10600 10615 10627 10642 10657 10668 10680 10693 10704 10718 10729 10738 10748 10755 10763 10771 10777 10781 10786 10791 10793 10796 10799 10800 10802 10801 10801 10800 10800 10799 10796 10792 10787 10784 10779 10775 10773 10772 10767 10762 10758 10754 10750
10560 10570 10582 10597 10613 10627 10641 10655 10672 10688 10692 10703 10715 10724 10733 10741 10750 10757 10762 10768 10774 10777 10780 10786 10786 10787 10789 10788 10788 10787 10789 10787 10784 10780 10777 10773 10769 10765 10762 10760 10756 10752 10748 10745 10740
10545 10559 10567 10578 10599 10613 10628 10643 10664 10670 10678 10689 10700 10710 10718 10727 10736 10742 10747 10753 10759 10764 10767 10772 10775 10775 10776 10776 10776 10775 10776 10776 10773 10769 10767 10763 10758 10753 10751 10748 10746 10741 10737 10734 10731
10534 10543 10556 10567 10582 10597 10615 10636 10650 10652 10663 10674 10686 10696 10706 10713 10721 10728 10734 10740 10745 10749 10755 10757 10760 10760 10762 10763 10763 10763 10763 10763 10762 10758 10754 10751 10747 10742 10739 10737 10734 10730 10725 10722 10719
10523 10533 10540 10553 10565 10583 10605 10626 10631 10637 10649 10659 10673 10683 10692 10699 10706 10713 10720 10726 10729 10735 10739 10742 10745 10745 10747 10750 10750 10750 10749 10749 10750 10748 10743 10739 10734 10731 10729 10727 10724 10719 10715 10710 10707
10511 10522 10533 10543 10554 10571 10599 10610 10613 10624 10632 10646 10659 10670 10678 10684 10692 10700 10706 10711 10716 10720 10724 10726 10729 10731 10733 10736 10737 10736 10735 10736 10736 10734 10732 10727 10720 10714 10716 10717 10713 10707 10703 10699 10695
10499 10512 10523 10534 10545 10563 10580 10588 10598 10610 10620 10632 10644 10655 10662 10671 10677 10684 10690 10696 10699 10703 10707 10711 10715 10717 10719 10720 10721 10722 10721 10721 10720 10720 10718 10718 10710 10702 10702 10702 10701 10697 10692 10687 10683
10488 10499 10509 10522 10541 10553 10563 10568 10580 10595 10605 10616 10628 10638 10648 10657 10663 10669 10674 10678 10683 10688 10693 10697 10701 10702 10703 10704 10706 10707 10706 10706 10705 10705 10702 10705 10697 10689 10689 10689 10688 10685 10679 10674 10670
10477 10488 10502 10517 10531 10541 10548 10554 10566 10578 10590 10601 10613 10622 10632 10640 10646 10652 10656 10662 10667 10672 10678 10684 10687 10686 10687 10689 10690 10692 10691 10691 10690 10689 10691 10683 10686 10674 10679 10677 10673 10671 10665 10662 10657
10469 10485 10497 10514 10526 10532 10536 10542 10550 10563 10576 10587 10597 10606 10613 10622 10630 10637 10640 10646 10652 10658 10662 10667 10670 10671 10670 10672 10675 10676 10675 10673 10673 10671 10678 10668 10673 10653 10662 10661 10659 10657 10652 10647 10642
10464 10476 10487 10497 10506 10512 10518 10530 10538 10547 10561 10572 10580 10585 10596 10608 10614 10618 10625 10632 10636 10640 10643 10649 10654 10652 10653 10655 10658 10662 10659 10653 10655 10652 10657 10655 10655 10648 10645 10642 10641 10638 10635 10632 10628
10454 10464 10472 10482 10490 10500 10515 10520 10526 10535 10546 10556 10562 10571 10582 10587 10595 10603 10610 10613 10620 10624 10627 10631 10633 10633 10639 10635 10639 10652 10636 10636 10637 10635 10635 10636 10633 10632 10630 10626 10624 10621 10617 10615 10611